Weather in Sasyr

Russia / Sakha (Yakutia) Republic     65°09′43″N   147°04′56″E
temp.,
°C
wind,
m/s
gust,
m/s
humid.,
%
clouds,
%
prec.,
mm/h
press.,
hPa
HPBL,
m
26 february, fri
fri2623:00−35ne00771 0.0 103119
02:00−34s017714 0.0 103219
05:00−34ene007520 0.0 103119
08:00−34wnw007839 0.0 103219
11:00−30sw118035 0.0 103226
14:00−26sw118482 0.0 1031110
17:00−28wnw119174 0.0 103119
20:00−32sse119647 0.0 103219
27 february, sat
sat2723:00−32se119333 0.0 103219
02:00−33se119536 0.0 103119
05:00−33sse119839 0.0 103119
08:00−33sse009821 0.0 103119
11:00−29s019215 0.0 103021
14:00−26wsw10890 0.0 1030103
17:00−28nne00954 0.0 102919
20:00−31se01999 0.0 102919
28 february, sun
sun2823:00−31se11964 0.0 102919
02:00−32sse019834 0.0 102819
05:00−32se119722 0.0 102719
08:00−33sse111000 0.0 102619
11:00−28s11942 0.0 102531
14:00−26w109127 0.0 1024112
17:00−28nw119544 0.0 102319
20:00−32wnw009960 0.0 102419
1 march, mon
mon123:00−33se0110052 0.0 102319
02:00−34nnw0110047 0.0 102319
05:00−35w0110053 0.0 102319
08:00−35ssw0010056 0.0 102319
11:00−31wnw119561 0.0 102239
14:00−29wnw119369 0.0 1021170
17:00−30wnw119672 0.0 102119
20:00−33nw119787 0.0 102219
2 march, tue
tue223:00−35n009888 0.0 102319
02:00−36ne009980 0.0 102319
05:00−37e0010068 0.0 102319
08:00−38ssw0010042 0.0 102419
11:00−33ssw009526 0.0 102430
14:00−30w119022 0.0 1024154
17:00−31wnw119356 0.0 102319
20:00−33w0093100 0.0 102419